Location: Campillo
(40.8621°N, 4.2488°W)
Time: 17:00:58
(UTC+00:00)

Cosmos 1777 Rocket - Pass Details

Date: 29 September 2021
Orbit: 759 x 775 km, 74.0° (Epoch: 23 October)

Event Time Altitude Azimuth Distance (km) Brightness Sun altitude
Rises 19:06:42 0° 213° (SSW) 3,224 7.6 -13.0°
Reaches altitude 10° 19:09:08 10° 218° (SW) 2,299 6.9 -13.5°
Maximum altitude 19:14:11 49° 293° (WNW) 979 5.0 -14.4°
Drops below altitude 10° 19:19:16 10° 9° (N) 2,304 6.5 -15.4°
Sets 19:21:43 0° 15° (NNE) 3,232 7.2 -15.8°
